Weather History for South St. Paul, MN

Change the Weather History Date:

Saturday, November 16, 2013

  Actual Average (KMSP) Record (KMSP)
Temperature  
Mean Temperature 48 °F 33 °F  
Max Temperature 52 °F 41 °F 68 °F (1953)
Min Temperature 43 °F 26 °F -2 °F (1933)
Degree Days  
Heating Degree Days 18 32  
Month to date heating degree days 437  
Since 1 July heating degree days 1117  
Cooling Degree Days 0 0  
Month to date cooling degree days 0  
Year to date cooling degree days 753  
Moisture  
Dew Point 43 °F    
Average Humidity 84    
Maximum Humidity 95    
Minimum Humidity 63    
Precipitation  
Precipitation 0.15 in 0.06 in 1.27 in (1996)
Month to date precipitation 0.97  
Year to date precipitation 28.65  
Snow  
Snow 0.00 in 0.30 in 10.50 in (1909)
Month to date snowfall 3.7  
Since 1 July snowfall 4.3  
Since 1 September snowfall 4.3  
Snow Depth -    
Sea Level Pressure  
Sea Level Pressure 29.42 in    
Wind  
Wind Speed 8 mph (SSE)    
Max Wind Speed 13 mph    
Max Gust Speed 18 mph    
Visibility 7 miles    
Events Fog , Rain , Thunderstorm    
T = Trace of Precipitation, MM = Missing Value Source: NWS Daily Summary

Daily Weather History Graph

Daily Weather History Graph

Search for Another Location

Airport:

Trip Planner

Search our weather history database for the weather conditions in past years. The results will help you decide how hot, cold, wet, or windy it might be!

Date:

Astronomy

Nov. 16, 2013 Rise Set
Actual Time 7:11 AM CST 4:42 PM CST
Civil Twilight 6:39 AM CST 5:14 PM CST
Nautical Twilight 6:03 AM CST 5:49 PM CST
Astronomical Twilight 5:29 AM CST 6:24 PM CST
Moon 4:19 PM CST (11/16) 6:05 AM CST (11/16)
Length of Visible Light 10h 34m
Length of Day
9h 31m
Waxing Gibbous, 99% of the Moon is Illuminated
Nov 16
Waxing Gibbous
Nov 17
Full
Nov 25
Last Quarter
Dec 2
New
Dec 9
First Quarter

Hourly Weather History & Observations

Time (CST) Temp. Windchill Dew Point Humidity Pressure Visibility Wind Dir Wind Speed Gust Speed Precip Events Conditions
12:12 AM 46.6 °F - 34.7 °F 63% 29.65 in 10.0 mi South 9.2 mph - N/A   Clear
12:32 AM 46.4 °F 40.7 °F 34.7 °F 64% 29.65 in 10.0 mi South 12.7 mph - N/A   Clear
12:52 AM 46.4 °F 41.1 °F 34.7 °F 64% 29.64 in 10.0 mi South 11.5 mph 16.1 mph N/A   Clear
1:12 AM 45.9 °F 40.0 °F 35.1 °F 66% 29.63 in 10.0 mi South 12.7 mph 18.4 mph N/A   Clear
1:32 AM 45.5 °F 40.3 °F 35.1 °F 67% 29.63 in 10.0 mi South 10.4 mph - N/A   Clear
1:52 AM 45.0 °F 39.7 °F 35.2 °F 69% 29.63 in 10.0 mi SSE 10.4 mph - N/A   Clear
2:12 AM 44.6 °F 40.7 °F 35.6 °F 71% 29.62 in 10.0 mi SSE 6.9 mph - N/A   Clear
2:32 AM 43.9 °F 39.3 °F 35.6 °F 73% 29.61 in 10.0 mi SSE 8.1 mph - N/A   Scattered Clouds
2:52 AM 44.4 °F 40.5 °F 35.6 °F 71% 29.60 in 10.0 mi SSE 6.9 mph - N/A   Scattered Clouds
3:12 AM 45.0 °F 40.6 °F 36.0 °F 71% 29.60 in 10.0 mi SSE 8.1 mph - N/A   Mostly Cloudy
3:32 AM 45.3 °F 41.6 °F 36.3 °F 71% 29.59 in 10.0 mi SSE 6.9 mph - N/A   Overcast
3:52 AM 45.5 °F 41.3 °F 36.7 °F 71% 29.58 in 10.0 mi SSE 8.1 mph - N/A   Mostly Cloudy
4:12 AM 45.5 °F 40.3 °F 37.4 °F 73% 29.57 in 10.0 mi SSE 10.4 mph - N/A   Scattered Clouds
4:32 AM 45.9 °F 41.7 °F 38.1 °F 74% 29.56 in 10.0 mi SSE 8.1 mph - N/A   Clear
4:52 AM 46.4 °F 42.4 °F 38.7 °F 74% 29.56 in 10.0 mi South 8.1 mph - N/A   Clear
5:12 AM 46.4 °F 41.5 °F 39.0 °F 75% 29.55 in 10.0 mi SSE 10.4 mph - N/A   Clear
5:32 AM 46.0 °F 41.4 °F 39.2 °F 77% 29.55 in 10.0 mi SSE 9.2 mph - N/A   Clear
5:52 AM 45.5 °F 40.8 °F 39.2 °F 79% 29.54 in 10.0 mi SSE 9.2 mph - N/A   Clear
6:12 AM 45.5 °F 41.3 °F 39.2 °F 79% 29.53 in 10.0 mi South 8.1 mph - N/A   Clear
6:32 AM 45.5 °F 43.2 °F 39.2 °F 79% 29.53 in 10.0 mi SE 4.6 mph - N/A   Clear
6:52 AM 45.0 °F 41.8 °F 39.4 °F 81% 29.53 in 10.0 mi SE 5.8 mph - N/A   Clear
7:12 AM 45.7 °F 41.5 °F 39.6 °F 79% 29.52 in 10.0 mi SSE 8.1 mph - N/A   Mostly Cloudy
7:32 AM 46.4 °F 41.5 °F 40.1 °F 79% 29.52 in 10.0 mi SSE 10.4 mph - N/A   Overcast
7:52 AM 46.4 °F 41.9 °F 40.5 °F 80% 29.52 in 10.0 mi SSE 9.2 mph - N/A   Overcast
8:12 AM 46.4 °F 43.5 °F 40.6 °F 80% 29.51 in 10.0 mi SSE 5.8 mph - N/A   Overcast
8:32 AM 46.8 °F - 41.0 °F 80% 29.51 in 7.0 mi ESE 5.8 mph - N/A   Overcast
8:52 AM 47.3 °F - 42.1 °F 82% 29.51 in 7.0 mi SSE 6.9 mph - N/A   Overcast
9:12 AM 47.5 °F - 42.4 °F 83% 29.51 in 7.0 mi SSE 5.8 mph - N/A   Overcast
9:32 AM 47.5 °F - 42.8 °F 84% 29.50 in 5.0 mi SSE 4.6 mph - N/A   Haze
9:52 AM 47.7 °F - 43.0 °F 84% 29.49 in 5.0 mi SSE 6.9 mph - N/A   Haze
10:12 AM 47.7 °F - 43.3 °F 85% 29.49 in 5.0 mi SSE 6.9 mph - N/A   Haze
10:32 AM 47.7 °F - 43.3 °F 85% 29.49 in 5.0 mi SSE 8.1 mph - N/A   Haze
10:52 AM 47.7 °F - 43.7 °F 86% 29.46 in 4.0 mi SE 9.2 mph - N/A   Overcast
11:12 AM 47.7 °F - 43.9 °F 87% 29.44 in 4.0 mi SSE 8.1 mph - N/A   Overcast
11:32 AM 48.0 °F - 44.2 °F 87% 29.44 in 4.0 mi SE 6.9 mph - N/A   Overcast
11:52 AM 47.3 °F - 43.7 °F 87% 29.42 in 2.5 mi SE 5.8 mph - N/A   Overcast
12:12 PM 46.8 °F - 43.9 °F 90% 29.40 in 2.5 mi ESE 5.8 mph - N/A   Light Drizzle
12:32 PM 46.8 °F - 43.9 °F 90% 29.40 in 2.5 mi SE 5.8 mph - N/A Rain , Thunderstorm Light Thunderstorms and Rain
12:52 PM 46.9 °F - 44.6 °F 92% 29.37 in 1.5 mi SE 4.6 mph - 0.05 in Rain , Thunderstorm Light Thunderstorms and Rain
1:12 PM 46.8 °F - 44.6 °F 92% 29.36 in 1.5 mi SE 6.9 mph - 0.01 in Thunderstorm Unknown
1:32 PM 47.3 °F - 45.5 °F 93% 29.35 in 1.8 mi SE 6.9 mph - 0.02 in Rain Light Rain
1:52 PM 47.7 °F - 45.9 °F 93% 29.34 in 1.8 mi SE 5.8 mph - 0.03 in Rain , Thunderstorm Light Thunderstorms and Rain
2:12 PM 47.8 °F - 46.0 °F 93% 29.32 in 1.8 mi SE 6.9 mph - N/A Rain Light Rain
2:32 PM 48.2 °F - 46.4 °F 93% 29.30 in 2.0 mi SE 8.1 mph - 0.01 in Rain Light Rain
2:52 PM 48.4 °F - 46.8 °F 94% 29.29 in 2.5 mi SE 3.5 mph - 0.03 in Rain Light Rain
3:12 PM 48.7 °F - 47.1 °F 94% 29.28 in 2.5 mi SE 4.6 mph - N/A   Light Drizzle
3:32 PM 48.6 °F - 46.9 °F 94% 29.28 in 2.0 mi SE 4.6 mph - 0.01 in   Light Drizzle
3:52 PM 48.7 °F - 47.3 °F 95% 29.26 in 5.0 mi Calm Calm - 0.02 in Rain Light Rain
4:12 PM 49.1 °F - 47.3 °F 93% 29.25 in 5.0 mi SE 4.6 mph - 0.01 in Rain , Thunderstorm Light Thunderstorms and Rain
4:32 PM 49.3 °F - 47.7 °F 94% 29.24 in 10.0 mi Calm Calm - 0.02 in   Overcast
4:52 PM 49.6 °F - 48.2 °F 95% 29.24 in 7.0 mi SSE 3.5 mph - 0.02 in Rain Light Rain
5:12 PM 49.5 °F - 47.8 °F 94% 29.24 in 7.0 mi Calm Calm - N/A   Overcast
5:32 PM 50.0 °F - 48.4 °F 94% 29.23 in 5.0 mi Calm Calm - N/A   Mostly Cloudy
5:52 PM 49.6 °F - 48.2 °F 95% 29.24 in 4.0 mi Calm Calm - N/A   Scattered Clouds
6:12 PM 50.2 °F - 48.6 °F 94% 29.25 in 4.0 mi Calm Calm - N/A   Mostly Cloudy
6:32 PM 50.0 °F - 48.6 °F 95% 29.25 in 2.5 mi Calm Calm - N/A   Overcast
6:52 PM 49.1 °F - 47.5 °F 94% 29.25 in 0.2 mi Calm Calm - N/A Fog Fog
7:12 PM 47.7 °F - 46.2 °F 95% 29.25 in 0.2 mi Calm Calm - N/A Fog Fog
7:32 PM 47.3 °F - 45.7 °F 94% 29.26 in 0.5 mi Calm Calm - N/A Fog Fog
7:52 PM 50.0 °F - 48.6 °F 95% 29.28 in 4.0 mi SW 6.9 mph - N/A   Overcast
8:12 PM 52.0 °F - 50.5 °F 95% 29.29 in 7.0 mi SW 9.2 mph - N/A   Overcast
8:32 PM 51.8 °F - 50.2 °F 94% 29.29 in 10.0 mi SW 9.2 mph - N/A   Mostly Cloudy
8:52 PM 50.7 °F - 49.1 °F 94% 29.30 in 10.0 mi SW 8.1 mph - N/A   Clear
9:12 PM 50.7 °F - 49.3 °F 95% 29.31 in 10.0 mi SW 8.1 mph - N/A   Clear
9:32 PM 50.4 °F - 46.6 °F 87% 29.31 in 10.0 mi SW 6.9 mph - N/A   Clear
9:52 PM 49.6 °F - 45.1 °F 84% 29.31 in 10.0 mi SW 5.8 mph - N/A   Clear
10:12 PM 49.1 °F - 44.8 °F 85% 29.32 in 10.0 mi SSW 5.8 mph - N/A   Clear
10:32 PM 47.5 °F - 43.7 °F 87% 29.32 in 7.0 mi SSW 4.6 mph - N/A   Clear
10:52 PM 46.4 °F 44.3 °F 42.8 °F 87% 29.32 in 7.0 mi SSW 4.6 mph - N/A   Clear
11:12 PM 46.4 °F - 43.0 °F 88% 29.32 in 7.0 mi Calm Calm - N/A   Clear
11:32 PM 46.4 °F 45.2 °F 43.2 °F 88% 29.32 in 7.0 mi South 3.5 mph - N/A   Clear
11:52 PM 45.5 °F 44.2 °F 42.6 °F 90% 29.32 in 7.0 mi SSW 3.5 mph - N/A   Clear